Regional Weather Roundup
Issued by NWS

Home | Current Version | Previous Version | Text Only | Print | Product List | Glossary On
Versions: 1 2 3 4 5 6 7 8 9 10 11 12 13 14 15 16 17 18 19 20 21 22 23 24 25 26 27 28 29 30 31 32 33 34 35 36 37 38 39 40 41 42 43 44 45 46 47 48 49 50
000
ASUS44 KFWD 010615
RWRTX
NORTH TEXAS HOURLY WEATHER ROUNDUP
NATIONAL WEATHER SERVICE FORT WORTH TX
100 AM CDT WED JUL 01 2015

NOTE: "FAIR" INDICATES FEW OR NO CLOUDS BELOW 12,000 FEET WITH NO
SIGNIFICANT WEATHER AND/OR OBSTRUCTIONS TO VISIBILITY.

TXZ118-119-010700-
DALLAS/FORT WORTH METROPLEX

CITY           SKY/WX    TMP DP  RH WIND       PRES   REMARKS
DFW AIRPORT    MOCLDY    79  69  71 S10       30.00
6HR MIN TEMP:  78; 6HR MAX TEMP:  92;

DALLAS LOVE    PTCLDY    81  68  64 SW7       30.00
6HR MIN TEMP:  81; 6HR MAX TEMP:  92;

FTW MEACHAM    PTCLDY    79  69  71 S9        30.00
6HR MIN TEMP:  79; 6HR MAX TEMP:  89; 6HR PCP: TRACE;

DAL-EXECUTIVE  CLEAR     76  68  76 VRB3      30.00
6HR MIN TEMP:  76; 6HR MAX TEMP:  89;

FTW-ALLIANCE   PTCLDY    77  69  76 S5        30.00
6HR MIN TEMP:  77; 6HR MAX TEMP:  92; 6HR PCP:  0.33;

FTW-NAS-JRB    CLEAR     79  70  74 S7        30.01S
6HR MIN TEMP:  78; 6HR MAX TEMP:  89;

FTW-SPINKS     CLEAR     75  69  81 S8        30.02S
6HR MIN TEMP:  75; 6HR MAX TEMP:  89;

ARLINGTON      CLEAR     77  69  76 S7        30.01
6HR MIN TEMP:  77; 6HR MAX TEMP:  90;

GRAND PRAIRIE  CLEAR     77  70  79 S8        30.03R
6HR MIN TEMP:  77; 6HR MAX TEMP:  89;

ADDISON        CLEAR     80  70  71 S8        30.02S
6HR MIN TEMP:  80; 6HR MAX TEMP:  91;

MESQUITE       CLEAR     74  71  89 S6        30.01F
6HR MIN TEMP:  74; 6HR MAX TEMP:  90;

LANCASTER      CLEAR     74  69  84 CALM      30.02S
6HR MIN TEMP:  74; 6HR MAX TEMP:  89;

$$

TXZ091>094-102>105-117-120-121-131>134-010700-
NORTH CENTRAL TEXAS

CITY           SKY/WX    TMP DP  RH WIND       PRES   REMARKS
SHRMAN/DENISON PTCLDY    80  74  82 S12       30.01S
6HR MIN TEMP:  79; 6HR MAX TEMP:  92;

GAINESVILLE    CLEAR     74  69  84 S5        30.02S
6HR MIN TEMP:  74; 6HR MAX TEMP:  90;

BOWIE          CLEAR     73  67  83 S5        30.00F
6HR MIN TEMP:  73; 6HR MAX TEMP:  87;

BRIDGEPORT     CLEAR     78  68  73 S3        30.02R
6HR MIN TEMP:  78; 6HR MAX TEMP:  91;

DECATUR        CLEAR     77  67  71 S9        30.01S
6HR MIN TEMP:  77; 6HR MAX TEMP:  91;

DENTON         CLEAR     77  70  79 S8        30.00
6HR MIN TEMP:  76; 6HR MAX TEMP:  91;

MCKINNEY       CLEAR     78  70  76 S6        30.00
6HR MIN TEMP:  77; 6HR MAX TEMP:  88;

GREENVILLE     CLEAR     75  68  78 S6        30.01F
ROCKWALL       CLEAR     77  71  81 S8G18     30.00F
6HR MIN TEMP:  77; 6HR MAX TEMP:  89;

TERRELL        CLEAR     74  71  91 S5        30.01
6HR MIN TEMP:  74; 6HR MAX TEMP:  89;

WAXAHACHIE     CLEAR     73  71  91 S3        30.02F
6HR MIN TEMP:  73; 6HR MAX TEMP:  87;

CLEBURNE       CLEAR     73  73 100 S6        30.03F
GRANBURY       PTCLDY    77  69  76 E5        30.02S
6HR MIN TEMP:  77; 6HR MAX TEMP:  88;

$$

TXZ083>090-098>101-113>116-127>130-139>142-154-155-010700-
WESTERN NORTH TEXAS

CITY           SKY/WX    TMP DP  RH WIND       PRES   REMARKS
WICHITA FALLS  CLEAR     78  70  76 S12       29.98
6HR MIN TEMP:  78; 6HR MAX TEMP:  93;

WF-KICKAPOO    CLEAR     80  70  70 S6        29.99S
6HR MIN TEMP:  80; 6HR MAX TEMP:  95;

VERNON         CLEAR     78  60  53 S5        29.99S
ABILENE        CLEAR     75  68  78 S8        30.05
6HR MIN TEMP:  75; 6HR MAX TEMP:  86; 6HR PCP:  0.09;

ABILENE-DYESS  CLEAR     74  70  86 S9        30.03S
6HR MIN TEMP:  74; 6HR MAX TEMP:  80; 6HR PCP:  0.01;

BRECKENRIDGE   CLEAR     78  66  65 S10       30.01S
6HR MIN TEMP:  78; 6HR MAX TEMP:  93;

GRAHAM         CLEAR     77  71  80 SE5       29.99S
6HR MIN TEMP:  77; 6HR MAX TEMP:  92;

MINERAL WELLS  CLEAR     74  69  85 SE3       29.99
6HR MIN TEMP:  73; 6HR MAX TEMP:  91;

STEPHENVILLE   PTCLDY    72  68  86 CALM      30.06S
6HR MIN TEMP:  71; 6HR MAX TEMP:  88; 6HR PCP:  0.88;

COMANCHE       PTCLDY    73  70  91 S3        30.04S
6HR MIN TEMP:  73; 6HR MAX TEMP:  89;

BROWNWOOD      MOCLDY    73  66  78 SE6       30.04F
COLEMAN        PTCLDY    74  69  83 CALM      30.05F
6HR MIN TEMP:  74; 6HR MAX TEMP:  90;

BRADY          CLEAR     72  66  83 N3        30.06S
$$

TXZ143>147-156>162-174-175-010700-
CENTRAL TEXAS

CITY           SKY/WX    TMP DP  RH WIND       PRES   REMARKS
WACO           PTCLDY    73  71  93 SW7       30.03
6HR MIN TEMP:  73; 6HR MAX TEMP:  89;

WACO-MCGREGOR  PTCLDY    72  66  83 S7        30.05S
6HR MIN TEMP:  72; 6HR MAX TEMP:  88;

HILLSBORO      CLEAR     72  68  86 S3        30.03R
6HR MIN TEMP:  72; 6HR MAX TEMP:  89;

CORSICANA      CLEAR     74  71  91 S8        30.04
6HR MIN TEMP:  74; 6HR MAX TEMP:  89;

MEXIA          CLEAR     72  71  97 SE14      30.04S
6HR MIN TEMP:  72; 6HR MAX TEMP:  87;

HEARNE         CLEAR     73  72  97 SE5       30.06S
6HR MIN TEMP:  73; 6HR MAX TEMP:  77;

CAMERON        CLEAR     74  73  96 SE3       30.05S
6HR MIN TEMP:  74; 6HR MAX TEMP:  83;

TEMPLE         CLEAR     73  68  83 S8        30.05R
6HR MIN TEMP:  72; 6HR MAX TEMP:  77;

KILLEEN        CLEAR     72  71  96 S9        30.05R
6HR MIN TEMP:  72; 6HR MAX TEMP:  79;

KILLEEN-SKYLRK CLEAR     73  68  83 S7        30.05S
6HR MIN TEMP:  73; 6HR MAX TEMP:  79;

FORT HOOD      CLEAR     73  71  95 S9        30.04S
6HR MIN TEMP:  73; 6HR MAX TEMP:  78;

GATESVILLE     PTCLDY    72  70  94 S5        30.07R
HAMILTON       PTCLDY    72  72 100 S8        30.05S
6HR MIN TEMP:  72; 6HR MAX TEMP:  88;

LAMPASAS       CLEAR     73  71  95 S3        30.05R
6HR MIN TEMP:  72; 6HR MAX TEMP:  76;

$$

TXZ095>097-106>112-122>126-135>138-148>153-164>167-010700-
EAST TEXAS

CITY           SKY/WX    TMP DP  RH WIND       PRES   REMARKS
PARIS          CLEAR     77  66  69 SW7       30.01F
6HR MIN TEMP:  77; 6HR MAX TEMP:  90;

SULPHUR SPRNGS CLEAR     77  70  78 S8        30.03F
6HR MIN TEMP:  77; 6HR MAX TEMP:  91;

MOUNT PLEASANT CLEAR     75  69  82 S3        30.03F
6HR MIN TEMP:  74; 6HR MAX TEMP:  90;

GILMER         CLEAR     73  69  88 S3        30.02F THUNDER
6HR MIN TEMP:  73; 6HR MAX TEMP:  88;

MINEOLA          N/A     75  72  88 CALM      30.03F
TYLER          CLEAR     73  69  87 S7        30.02
6HR MIN TEMP:  73; 6HR MAX TEMP:  90;

LONGVIEW       CLEAR    N/A N/A N/A S6        30.01
MARSHALL       CLEAR     76  72  86 CALM      30.03F
6HR MIN TEMP:  76; 6HR MAX TEMP:  90;

ATHENS         CLEAR     72  70  94 CALM      30.02S
PALESTINE      CLEAR     72  70  93 S3        30.05S
JACKSONVILLE   CLEAR     73  70  92 S3        30.05F
HENDERSON      CLEAR     71  70  96 CALM      30.04F
6HR MIN TEMP:  71; 6HR MAX TEMP:  81;

CENTER         FAIR      71  70  95 SE6       30.02S
6HR MIN TEMP:  71; 6HR MAX TEMP:  80;

NACOGDOCHES    PTCLDY   N/A N/A N/A CALM      30.02F
LUFKIN         MOCLDY    74  70  87 SE5       30.03
6HR MIN TEMP:  74; 6HR MAX TEMP:  77;

$$

SUPPLEMENTAL OBSERVATIONS (CENTRAL)

CITY           SKY/WX    TMP DP  RH WIND       PRES   REMARKS
LAKE TEXOMA      N/A     81  72  74 S7          N/A
CADDO GRASSLND   N/A     81  73  78 S10         N/A
PAT MAYSE LAKE   N/A     81  75  83 S14         N/A
GREENVILLE       N/A     77  68  73 S6          N/A
CEDAR HILL       N/A     73  66  78 S1          N/A


USA.gov is the U.S. government's official web portal to all federal, state and local government web resources and services.